{"data":{"norad_id":61597,"intl_designator":"2024-188D","name":"ONEWEB-0689","alt_names":[],"object_type":"PAYLOAD","status":"ACTIVE","operator":null,"country":"UK","launch_date":"2024-10-20","launch_site_code":"AFWTR","launch_vehicle":null,"mission":null,"orbit_class":"UNKNOWN","rcs_meters":null,"size_class":null,"mass_kg":null,"dimensions":null,"purposes":["comms"],"wikipedia_slug":null,"has_3d_model":false,"image_url":null,"decayed_at":null,"tle_current":{"epoch":"2026-09-19T13:40:38.965152Z","epoch_age_seconds":98682,"freshness":"FRESH","line1":"1 61597U 24188D   26262.56989543  .00000439  00000+0  12016-2 0  9995","line2":"2 61597  87.8971   2.2960 0001602 109.9355 250.1945 13.11418552 96822","mean_motion":13.11418552,"eccentricity":0.0001602,"inclination_deg":87.8971,"raan_deg":2.296,"arg_perigee_deg":109.9355,"mean_anomaly_deg":250.1945,"bstar":0.0012016,"rev_number":9682,"period_min":109.80476048657,"perigee_km":1216.45964382,"apogee_km":1218.8933424632,"semimajor_km":7595.8134931416,"source":"CELESTRAK","updated_at":"2026-09-20T09:00:44.798621Z"}}}